Regional Weather Roundup
Issued by NWS Upton, NY

Current Version | Previous Version | Graphics & Text | Print | Product List | Glossary On
Versions: 1 2 3 4 5 6 7 8 9 10 11 12 13 14 15 16 17 18 19 20 21 22 23 24 25 26 27 28 29 30 31 32 33 34 35 36 37 38 39 40 41 42 43 44 45 46 47 48 49 50
706
ASUS41 KOKX 281904
RWROKX

REGIONAL WEATHER ROUNDUP
NATIONAL WEATHER SERVICE NEW YORK NY
300 PM EDT SUN AUG 28 2016

NOTE: "FAIR" INDICATES FEW OR NO CLOUDS BELOW 12,000 FEET WITH NO
SIGNIFICANT WEATHER AND/OR OBSTRUCTIONS TO VISIBILITY.

NYZ071-072-176-178-NJZ106-104-282000-
NEW YORK CITY METRO AREA

CITY           SKY/WX    TMP DP  RH WIND       PRES   REMARKS
Central Park   SUNNY     86  60  41 VRB3      30.24F
LaGuardia APRT MOSUNNY   87  57  35 S8        30.21F
Kennedy INTL   MOSUNNY   81  59  47 S12       30.24F
Newark/Liberty MOSUNNY   85  64  49 SE13      30.21F
Bronx Bot Gard   N/A     86  57  37 E3        30.21F
Wall St Helipt CLEAR     88  63  42 S5        30.23F
Teterboro      SUNNY     87  61  41 SE12      30.19F
$$

NYZ177-179-078>081-282000-
LONG ISLAND NEW YORK

CITY           SKY/WX    TMP DP  RH WIND       PRES   REMARKS
Farmingdale    SUNNY     85  56  37 S12       30.23F
MacArthur/ISP  MOSUNNY   83  56  39 S10       30.23F
Shirley        SUNNY     82  57  42 S12       30.24F
Riverhead      NOT AVBL
Westhampton    SUNNY     80  57  45 SE9       30.26F
Southampton      N/A     77  63  61 S9        30.21S
Bridgehampton    N/A     81  63  54 S2        30.24S
East Hampton   FAIR      78  59  52 SE9       30.24F
Montauk          N/A     79  61  53 VRB6      30.25F
$$

NYZ052-065-067-282000-
HUDSON VALLEY

CITY           SKY/WX    TMP DP  RH WIND       PRES   REMARKS
White Plains   MOSUNNY   85  62  46 S14       30.22F
Newburgh       MOSUNNY   86  66  51 W7G18     30.22F
Montgomery     SUNNY     87  66  49 SW7       30.20F
Poughkeepsie   MOSUNNY   85  63  47 S7        30.18F
Albany         MOSUNNY   87  63  44 S10G17    30.15F
$$

NJZ001-105-106-008-010-013-015-019>022-104-282000-
NEW JERSEY

CITY           SKY/WX    TMP DP  RH WIND       PRES   REMARKS
Newark/Liberty MOSUNNY   85  64  49 SE13      30.21F
Teterboro      SUNNY     87  61  41 SE12      30.19F
Caldwell       MOSUNNY   88  64  44 SW8       30.21F
Morristown     MOSUNNY   88  64  45 SW10G17   30.21F
Somerville     MOSUNNY   88  64  44 CALM      30.20F
Linden         FAIR      86  63  46 S12       30.23F
Sussex         SUNNY     86  64  47 VRB5      30.22F
Abdover          N/A     85  63  47 SW8       30.23F
Trenton        SUNNY     87  62  43 VRB5      30.21F
Millville      MOSUNNY   87  65  47 SE8       30.22F
Atlantic City  SUNNY     86  64  47 E8        30.23F
Wrightstown    SUNNY     87  64  47 SE6       30.18F
Toms River     SUNNY     86  65  49 SE8       30.23
Belmar         SUNNY     83  65  54 E12G17    30.24F
$$

PAZ047>061-062-071-282000-
EASTERN PENNSYLVANIA

CITY           SKY/WX    TMP DP  RH WIND       PRES   REMARKS
Philadelphia   MOSUNNY   88  62  41 MISG      30.21F
Allentown      SUNNY     90  60  36 S8        30.21F
Scranton       SUNNY     87  63  44 SW8       30.21F
$$

CTZ002-004>006-009-010-012-RIZ004-006-007-MAZ004-011-015-282000-
SOUTHERN NEW ENGLAND
 IN CT

CITY           SKY/WX    TMP DP  RH WIND       PRES   REMARKS
Bradley INTL   MOSUNNY   87  63  44 S13       30.20F
Hartford       SUNNY     88  62  41 S7        30.19F
Danbury        SUNNY     83  63  50 S7        30.23F
Wtrbury/Oxford MOSUNNY   82  61  47 SW7       30.27F
Bridgeport     SUNNY     83  65  54 SE7       30.23F
Meriden        SUNNY     86  57  37 S9        30.21F
New Haven      MOSUNNY   82  62  50 SE7       30.23F
Chester        FAIR      82  59  44 S7G13     30.24F
Groton         SUNNY     80  61  52 S9        30.23F
Wilimantic     SUNNY     86  61  42 W7        30.22F

 IN RI

CITY           SKY/WX    TMP DP  RH WIND       PRES   REMARKS
Providence     MOSUNNY   85  58  39 S8        30.23F
Block Island   SUNNY     78  59  51 SE8         N/A
Westerly       SUNNY     80  56  43 S8        30.25F
 IN MA

CITY           SKY/WX    TMP DP  RH WIND       PRES   REMARKS
Boston         MOSUNNY   76  62  62 E21       30.22F
Worcester      SUNNY     80  58  46 S10       30.25F
Westfield      SUNNY     88  61  40 S16G22    30.18F
Provincetown   SUNNY     79  65  62 SE8       30.25F
Nantucket      SUNNY     75  62  64 E10       30.24F
$$

ANZ330-335-338-340-345-350-353-355-282000-
COASTAL MARINE OBSERVATIONS


STATION/POSITION TIME  SKY/WX   TEMP    WIND        PRES    VSBY  WAVE
                                AIR SEA DIR/SP/G                  HT/PER
                 (UTC)          (F)     (DEG/KT/KT) (MB)    (MI)  (FT/S)
NY HARB ENTRANCE 1750            76 78  110/  6/  6 1024.3          2/ 9
20S FIRE ISLAND  1750            75 76   80/  6/  8 1024.3          3/ 8
GREAT SOUTH BAY  NOT AVBL
23 SSW MONTAUK P 1750            74 78   90/  6/  8 1025.0          2/ 8
15 E BARNEGAT LI 1800               78                N/A           3/ 8
HUDSON CANYON    1850            76 79              1023.4          3/ 9
KINGS POINT      1800            82 78              1023.6
EXECUTION ROCKS  1800            78      90/  6/  8   N/A
CENTRAL LI SOUND 1830            76 78   80/  6/  6   N/A           1
EASTERN LI SOUND 1800            74 73  190/  4/  4   N/A
ROBBINS REEF     1800            77     170/ 13/ 13 1023.2
$$


>>>>>>>>>>>>>>>>>>>>>>>>>>>> KEY <<<<<<<<<<<<<<<<<<<<<<<<<<<
>                                                          <
>     SKY/WX - Sky Condition/Present Weather               <
>     TMP    - Temperature in Fahrenheit                   <
>     DP     - Dew Point in Fahrenheit                     <
>     RH     - Relative Humidity in Percent                <
>     WIND   - Direction (from) and Speed in MPH           <
>     PRES   - Mean Sea Level Pressure (inches of Hg)      <
>     WCI    - Wind Chill Index                            <
>     VSB    - VISIBILITY IN MILES                         <
>     HX     - HEAT INDEX                                  <
>     TC     - TEMPERATURE IN CELSIUS                      <
>     VRB    - VARIABLE WIND DIRECTION                     <
>                                                          <
>>>>>>>>>>>>>>>>>>>>>>>>>>>> KEY <<<<<<<<<<<<<<<<<<<<<<<<<<<




USA.gov is the U.S. government's official web portal to all federal, state and local government web resources and services.